Location: Oberkirch
(48.5323°N, 8.0787°E)
Time: 10:41:56
(UTC+00:00)

Oscar 11 - Visible Passes

Search period start: 05 March 2026 00:00
Search period end: 15 March 2026 00:00
Orbit: 591 x 602 km, 97.8° (Epoch: 5 March)

Date Brightness Start Highest point End Pass type
(mag) Time Alt. Az. Time Alt. Az. Time Alt. Az.
5 Mar 8.4 03:07:18 10° NNE 03:09:39 32° NNE 03:09:39 32° NNE visible
5 Mar 8.9 04:44:39 10° NNW 04:46:20 13° NW 04:46:20 13° NW visible
6 Mar 8.1 03:17:17 10° N 03:19:54 37° N 03:19:54 37° N visible
6 Mar 9.1 04:55:33 10° NW 04:56:24 11° NW 04:56:34 11° WNW visible
7 Mar 10.1 01:53:02 10° NE 01:53:26 11° ENE 01:53:26 11° ENE visible
7 Mar 7.9 03:27:18 10° N 03:30:07 40° N 03:30:07 40° N visible
8 Mar 9.9 02:02:32 10° NE 02:03:40 14° ENE 02:03:40 14° ENE visible
8 Mar 7.7 03:37:20 10° N 03:40:21 39° NNW 03:40:21 39° NNW visible
9 Mar 9.6 02:12:11 10° NE 02:13:53 18° ENE 02:13:53 18° ENE visible
9 Mar 7.8 03:47:23 10° N 03:50:35 36° NW 03:50:35 36° NW visible
10 Mar 9.3 02:21:55 10° NE 02:24:06 23° ENE 02:24:06 23° ENE visible
10 Mar 7.9 03:57:28 10° N 04:00:48 31° NW 04:00:48 31° NW visible
11 Mar 8.9 02:31:42 10° NNE 02:34:20 29° ENE 02:34:20 29° ENE visible
11 Mar 8.1 04:07:35 10° N 04:11:00 26° WNW 04:11:00 26° WNW visible
12 Mar 8.4 02:41:31 10° NNE 02:44:32 37° ENE 02:44:32 37° ENE visible
12 Mar 8.3 04:17:46 10° NNW 04:20:56 21° WNW 04:21:13 21° WNW visible
13 Mar 7.9 02:51:23 10° NNE 02:54:45 47° ENE 02:54:45 47° ENE visible
13 Mar 8.5 04:27:59 10° NNW 04:30:47 18° WNW 04:31:25 17° WNW visible
14 Mar 7.3 03:01:17 10° NNE 03:04:57 62° NE 03:04:57 62° NE visible
14 Mar 8.8 04:38:18 10° NNW 04:40:36 15° WNW 04:41:37 13° WNW visible
